Probability
0 0 0 0 0 0 0 0 0 0 0 0 0 0 0 0 0 0 0 0 0 0 0 0 0 0 0 0 0 0 0 0 0 0 0 0 0 0
0 0 0 0 0 0 0 0 0 0 0 0 0 0 0 0 0 0 0 0 0 0 0 0 0 0 0 0 0 0 0 0 0 0 0 0 0 0
0 0 0 0 0 0 0 0 0 0 0 0 0 0 0 0 0 0 0 0 0 0 0 0 0 0 0 0 0 0 0 0 0 0 0 0 0 0
0 0 0 0 0 0 0 0 0 0 0 0 0 0 0 0 0 0 0 0 0 0 0 0 0 0 0 0 0 0 0 0 0 0 0 0 0 0
0 0 0 0 0 0 0 0 0 0 0 0 0 0 0 0 0 0 0 0 0 0 0 0 0 0 0 0 0 0 0 0 0 0 0 0 0 0
0 0 0 0 0 0 0 0 0 0 0 0 0 0 0 0 0 0 0 0 0 0 0 0 0 0 0 0 0 0 0 0 0 0 0 0 0 0
0 0 0 0 0 0 0 0 0 0 0 0 0 0 0 0 0 0 0 0 0 0 0 0 0 0 0 0 0 0 0 0 0 0 0 0 0 0
0 0 0 0 0 0 0 0 0 0 0 0 0 0 0 0 0 0 0 0 0 0 0 0 0 0 0 0 0 0 0 0 0 0 0 0 0 0
0 0 0 0 0 0 0 0 0 0 0 0 0 0 0 0 0 0 0 0 0 0 0 0 0 0 0 0 0 0 0 0 0 0 0 0 0 0
0 0 0 0 0 0 0 0 0 0 0 0 0 0 0 0 0 0 0 0 0 0 0 0 0 0 0 0 0 0 0 0 0 0 0 0 0 0
0 0 0 0 0 0 0 0 0 0 0 0 0 0 0 0 0 0 0 0 0 0 0 0 0 0 0 0 0 0 0 0 0 0 0 0 0 0
0 0 0 0 0 0 0 0 0 0 0 0 0 0 0 0 0 0 0 0 0 0 0 0 0 0 0 0 0 0 0 0 0 0 0 0 0 0
0 0 0 0 0 0 0 0 0 0 0 0 0 0 0 0 0 0 0 0 0 0 0 0 0 0 0 0 0 0 0 0 0 0 0 0 0 0
0 0 0 0 0 0 0 0 0 0 0 0 0 0 0 0 0 0 0 0 0 0 0 0 0 0 0 0 0 0 0 0 0 0 0 0 0 0
0 0 0 0 0 0 0 0 0 0 0 0 0 0 0 0 0 0 0 0 0 0 0 0 0 0 0 0 0 0 0 0 0 0 0 0 0 0
0 0 0 0 0 0 0 0 0 0 0 0 0 0 0 0 0 0 0 0 0 0 0 0 0 0 0 0 0 0 0 0 0 0 0 0 0 0
0 0 0 0 0 0 0 0 0 0 0 0 0 0 0 0 0 0 0 0 0 0 0 0 0 0 0 0 0 0 0 0 0 0 0 0 0 0
0 0 0 0 0 0 0 0 0 0 0 0 0 0 0 0 0 0 0 0 0 0 0 0 0 0 0 0 0 0 0 0 0 0 0 0 0 0
0 0 0 0 0 0 0 0 0 0 0 0 0 0 0 0 0 0 0 0 0 0 0 0 0 0 0 0 0 0 0 0 0 0 0 0 0 0
0 0 0 0 0 0 0 0 0 0 0 0 0 0 0 0 0 0 0 0 0 0 0 0 0 0 0 0 0 0 0 0 0 0 0 0 0 0
0 0 0 0 0 0 0 0 0 0 0 0 0 0 0 0 0 0 0 0 0 0 0 0 0 0 0 0 0 0 0 0 0 0 0 0 0 0
0 0 0 0 0 0 0 0 0 0 0 0 0 0 0 0 0 0 0 0 0 0 0 0 0 0 0 0 0 0 0 0 0 0 0 0 0 0
0 0 0 0 0 0 0 0 0 0 0 0 0 0 0 0 0 0 0 0 0 0 0 0 0 0 0 0 0 0 0 0 0 0 0 0 0 0
Wind_Speed
5 4 3 1 1 1 0 1 4 7 5 2 1 2 4 6 13 11 12 21 28 30 32 32 32 32 32 32 33 33 34 35 35 34 34 33 32 30
4 4 3 2 1 1 1 2 3 5 8 4 2 4 6 9 16 12 13 26 27 28 30 31 31 32 32 33 33 34 34 35 36 37 37 35 33 32
6 5 4 3 2 2 3 4 5 5 10 10 4 5 9 12 12 11 12 14 14 25 29 31 31 31 32 33 33 34 34 35 36 37 38 38 35 33
7 6 6 4 5 4 4 5 5 6 6 15 13 10 14 14 14 15 14 14 14 24 30 31 31 31 31 31 31 32 33 34 35 37 39 40 39 36
8 8 7 7 7 6 5 5 5 6 7 11 16 13 13 13 16 15 16 14 15 18 24 26 28 30 30 31 31 31 32 32 34 36 38 40 41 40
8 8 8 8 7 6 5 5 5 6 8 11 14 14 14 15 14 14 16 11 12 13 18 22 26 30 31 32 31 30 31 32 34 35 37 39 41 41
8 8 8 10 11 9 6 6 6 6 7 10 13 15 15 14 14 14 18 16 14 10 13 13 13 13 15 22 26 29 32 34 34 35 35 37 39 40
9 8 8 9 11 13 14 13 13 10 10 11 14 16 19 18 17 16 18 20 21 6 9 13 10 14 13 12 24 33 34 35 34 34 36 35 37 38
9 8 6 6 7 7 10 14 14 19 21 17 18 20 21 19 20 22 20 21 23 16 15 21 11 16 15 18 32 35 35 36 36 35 35 34 34 36
9 8 7 6 7 8 8 8 11 13 17 15 16 19 19 20 20 23 24 24 25 18 15 21 17 15 16 14 27 34 35 36 36 36 36 35 32 30
9 9 8 8 11 13 9 9 12 13 18 23 26 27 31 33 29 19 18 18 22 19 9 17 19 17 16 15 17 30 33 34 36 37 36 34 32 27
7 7 10 12 12 13 8 9 12 12 11 13 18 20 20 22 27 19 15 16 20 21 10 14 18 16 20 15 13 13 18 27 34 35 34 31 27 17
6 5 7 11 12 13 13 8 13 15 9 9 11 13 13 13 14 14 14 15 19 21 14 14 18 16 18 19 15 13 12 14 16 20 25 29 28 20
6 6 6 10 11 14 11 11 17 14 5 7 9 11 12 12 12 14 17 18 19 24 22 21 20 19 19 21 20 14 12 12 13 15 15 21 25 27
7 9 6 7 9 8 10 13 9 4 5 8 10 12 12 13 15 15 17 18 21 22 21 23 22 19 20 22 21 18 17 14 13 14 14 14 13 12
6 4 3 3 4 6 7 7 5 6 7 9 11 12 13 13 14 14 16 15 17 16 17 21 22 23 22 24 22 20 18 16 12 13 14 14 13 13
7 3 2 1 1 3 4 5 5 6 7 8 10 12 13 14 14 15 15 16 18 19 16 12 17 19 23 24 22 21 19 18 16 14 15 16 16 14
8 3 2 1 3 4 4 5 6 6 8 9 10 11 13 14 16 15 15 16 18 18 18 15 15 17 18 19 23 21 18 17 15 15 16 17 17 14
5 4 3 3 4 5 5 5 6 7 8 9 11 12 13 14 15 16 16 16 17 18 17 15 15 16 18 19 16 20 19 17 15 15 16 17 18 16
4 4 3 3 4 5 5 5 6 8 8 10 11 12 13 14 15 16 16 18 19 19 18 15 14 15 17 19 19 19 24 19 16 16 16 15 16 21
4 4 3 3 4 5 4 5 6 7 9 10 11 12 13 14 15 16 18 22 21 19 20 18 16 21 19 16 18 20 19 23 23 18 16 16 16 15
4 4 3 4 4 5 4 5 5 7 9 11 12 12 13 13 16 19 19 19 18 19 21 19 18 16 15 18 20 22 22 19 21 30 32 25 16 15
4 3 3 3 4 4 4 5 6 8 9 11 12 12 13 13 14 16 18 19 19 21 21 20 17 15 16 17 19 20 24 22 17 17 19 27 34 35
Wind_Direction
154 155 157 160 146 103 17 310 292 302 291 229 57 87 7 338 321 318 313 309 307 305 302 298 296 294 292 289 288 287 285 282 280 279 277 272 268 269
137 136 132 122 118 127 235 254 246 260 280 253 271 302 328 318 308 307 302 301 302 301 299 297 295 292 289 286 284 283 280 278 276 274 273 271 267 264
141 146 161 169 205 217 231 246 254 258 275 286 285 311 314 307 303 298 294 294 292 293 293 292 290 288 286 284 282 281 278 276 275 273 271 269 267 264
158 162 180 186 204 216 227 246 256 262 280 297 306 314 311 308 302 299 297 292 287 287 288 288 288 287 284 281 280 280 278 275 272 270 267 265 263 265
161 171 186 197 211 216 224 241 256 273 282 292 300 306 303 303 303 295 287 282 280 282 286 286 286 285 285 285 285 285 284 280 277 270 265 262 261 260
166 178 193 206 216 217 225 235 247 264 277 283 290 297 298 299 295 297 296 285 284 286 283 280 280 281 280 281 280 282 285 285 283 277 266 257 255 255
174 188 204 215 222 220 218 217 227 246 263 274 283 290 292 296 296 298 295 296 285 277 280 275 274 270 269 271 274 278 282 281 280 283 274 258 250 250
178 193 210 220 234 246 253 255 251 253 259 267 277 281 287 291 294 293 293 294 292 268 269 280 275 276 272 266 271 275 278 281 281 280 282 264 249 245
180 194 208 214 215 237 256 267 272 272 271 274 277 280 287 292 292 289 284 282 281 284 286 283 271 269 269 269 273 274 276 279 282 282 282 274 253 244
187 198 210 222 230 240 248 254 258 262 266 271 274 280 282 285 283 283 282 280 277 271 264 274 277 271 271 264 268 270 273 275 279 282 280 275 264 249
194 201 213 224 240 255 261 261 268 269 277 281 283 285 288 292 293 292 290 289 287 285 266 269 276 277 272 268 266 270 270 273 278 281 276 270 264 255
197 210 219 225 238 255 257 260 273 282 287 288 289 291 294 291 288 280 281 281 281 283 274 266 273 276 278 269 264 266 267 270 274 279 276 268 262 257
187 203 220 234 250 264 272 272 280 289 288 292 295 291 286 281 278 276 274 274 280 281 288 283 277 272 269 276 272 263 260 263 269 273 275 268 262 257
186 197 213 242 265 279 286 284 291 303 310 298 288 283 283 284 283 283 280 275 271 276 283 281 278 276 274 272 273 268 254 251 254 259 259 261 260 257
179 192 213 268 291 297 295 299 308 306 289 284 283 283 285 288 290 287 283 279 276 275 277 275 272 271 268 268 270 268 265 257 249 254 255 251 247 246
146 126 77 338 304 296 298 303 294 279 280 281 284 289 295 294 291 292 293 293 290 285 278 277 276 275 272 267 265 263 259 257 248 246 251 252 247 241
121 94 80 64 292 279 281 284 285 285 284 284 290 296 297 295 294 294 294 294 293 295 294 283 276 274 269 268 264 257 253 251 247 247 247 251 247 240
130 122 138 199 256 270 280 289 291 291 293 294 293 294 296 297 297 296 296 296 295 294 293 293 289 286 281 270 255 255 248 244 242 238 238 245 249 242
120 137 168 217 248 262 269 279 287 292 295 293 290 292 294 294 295 298 301 300 296 294 292 291 286 284 284 283 280 260 249 242 239 237 236 238 245 247
125 153 188 223 246 256 269 282 289 294 294 291 289 289 289 291 296 302 303 302 300 298 295 288 282 275 270 274 278 283 273 259 247 242 239 238 242 248
153 171 198 229 249 259 266 273 280 287 289 289 287 288 290 294 302 305 305 303 302 300 298 294 286 280 273 269 266 264 264 257 249 248 245 242 242 243
163 182 209 234 251 261 266 272 282 287 291 287 288 291 292 300 308 309 307 307 305 301 299 296 294 285 271 262 261 266 268 264 258 251 245 238 238 239
172 187 217 247 255 258 262 271 280 284 286 286 290 293 297 309 312 309 308 307 306 305 305 303 299 288 275 265 262 262 264 264 261 257 247 237 236 241